QPF
0.05 0.03 0.04 0.04 0.05 0.05 0.05 0.07 0.09 0.10 0.10 0.10 0.07 0.05 0.05 0.05 0.02 0.02 0.03 0.05 0.04 0.02 0.02 0.02 0.03 0.03 0.02 0.02 0.01 0.02 0.02 0.02 0.02 0.02 0.02 0.02 0.02 0.02 0.03 0.04 0.06 0.05 0.04
0.04 0.03 0.03 0.03 0.03 0.04 0.04 0.06 0.07 0.08 0.08 0.07 0.06 0.05 0.05 0.04 0.04 0.04 0.06 0.06 0.04 0.02 0.01 0.02 0.04 0.03 0.02 0.02 0.02 0.02 0.01 0.01 0.01 0.02 0.03 0.04 0.03 0.04 0.05 0.04 0.04 0.05 0.05
0.03 0.02 0.04 0.03 0.03 0.04 0.05 0.06 0.06 0.06 0.06 0.05 0.05 0.06 0.04 0.04 0.04 0.04 0.05 0.06 0.05 0.03 0.02 0.03 0.04 0.03 0.02 0.03 0.03 0.02 0.02 0.01 0.01 0.03 0.07 0.09 0.04 0.03 0.04 0.02 0.03 0.03 0.05
0.03 0.03 0.04 0.05 0.05 0.05 0.07 0.07 0.05 0.05 0.04 0.05 0.06 0.07 0.06 0.06 0.05 0.04 0.04 0.05 0.05 0.05 0.05 0.04 0.05 0.03 0.02 0.02 0.02 0.01 0.01 0.02 0.03 0.06 0.09 0.10 0.06 0.03 0.03 0.03 0.04 0.04 0.04
0.02 0.02 0.04 0.05 0.05 0.07 0.08 0.08 0.06 0.05 0.04 0.04 0.07 0.09 0.07 0.05 0.05 0.03 0.03 0.04 0.06 0.06 0.05 0.03 0.03 0.03 0.02 0.02 0.02 0.02 0.01 0.02 0.04 0.07 0.09 0.07 0.05 0.04 0.04 0.04 0.03 0.03 0.04
0.01 0.02 0.03 0.05 0.05 0.06 0.07 0.08 0.07 0.06 0.05 0.05 0.08 0.09 0.08 0.05 0.05 0.04 0.04 0.05 0.04 0.04 0.03 0.02 0.03 0.02 0.03 0.03 0.02 0.02 0.01 0.03 0.06 0.07 0.08 0.07 0.05 0.04 0.05 0.04 0.04 0.04 0.05
0.01 0.02 0.02 0.03 0.04 0.06 0.07 0.08 0.08 0.07 0.07 0.08 0.08 0.08 0.06 0.06 0.07 0.05 0.05 0.05 0.04 0.03 0.02 0.02 0.04 0.02 0.02 0.02 0.02 0.02 0.02 0.03 0.04 0.04 0.06 0.06 0.05 0.05 0.06 0.06 0.05 0.05 0.06
0.02 0.03 0.03 0.03 0.03 0.04 0.04 0.06 0.07 0.07 0.07 0.07 0.07 0.08 0.07 0.06 0.07 0.06 0.05 0.04 0.04 0.03 0.02 0.02 0.03 0.01 0.01 0.01 0.01 0.01 0.02 0.02 0.01 0.02 0.04 0.06 0.07 0.06 0.06 0.05 0.05 0.05 0.06
0.02 0.03 0.05 0.06 0.04 0.05 0.05 0.05 0.06 0.08 0.09 0.06 0.05 0.07 0.06 0.06 0.05 0.06 0.07 0.05 0.06 0.04 0.03 0.03 0.02 0.02 0.01 0.01 0.01 0.01 0.02 0.02 0.02 0.02 0.02 0.06 0.07 0.05 0.04 0.05 0.06 0.05 0.07
0.01 0.02 0.04 0.05 0.05 0.06 0.05 0.04 0.04 0.05 0.06 0.06 0.04 0.04 0.05 0.06 0.05 0.06 0.07 0.08 0.08 0.05 0.03 0.02 0.02 0.02 0.01 0.01 0.01 0.02 0.02 0.02 0.02 0.02 0.03 0.05 0.08 0.05 0.05 0.04 0.05 0.05 0.05
0.03 0.06 0.07 0.06 0.05 0.06 0.05 0.04 0.03 0.03 0.03 0.04 0.05 0.05 0.06 0.09 0.08 0.06 0.05 0.09 0.08 0.05 0.03 0.02 0.02 0.03 0.02 0.02 0.02 0.02 0.02 0.04 0.05 0.04 0.04 0.06 0.10 0.10 0.07 0.05 0.05 0.04 0.03
0.04 0.04 0.06 0.06 0.05 0.05 0.05 0.05 0.05 0.04 0.05 0.05 0.07 0.05 0.05 0.06 0.06 0.03 0.03 0.05 0.05 0.04 0.02 0.02 0.02 0.02 0.02 0.03 0.03 0.03 0.04 0.06 0.05 0.04 0.05 0.09 0.11 0.12 0.09 0.07 0.05 0.04 0.03
0.03 0.02 0.04 0.05 0.03 0.05 0.08 0.08 0.07 0.08 0.07 0.07 0.06 0.04 0.03 0.03 0.03 0.02 0.03 0.03 0.04 0.03 0.03 0.02 0.02 0.02 0.03 0.05 0.04 0.03 0.04 0.04 0.04 0.05 0.05 0.06 0.08 0.08 0.08 0.07 0.03 0.03 0.03
0.05 0.04 0.04 0.05 0.07 0.07 0.06 0.07 0.07 0.08 0.08 0.07 0.06 0.04 0.02 0.03 0.03 0.03 0.03 0.03 0.04 0.04 0.04 0.03 0.04 0.03 0.03 0.03 0.03 0.03 0.03 0.03 0.03 0.03 0.04 0.05 0.04 0.05 0.07 0.07 0.05 0.03 0.03
0.05 0.05 0.04 0.05 0.05 0.04 0.04 0.05 0.05 0.07 0.06 0.06 0.05 0.03 0.02 0.02 0.03 0.04 0.04 0.03 0.04 0.05 0.04 0.04 0.03 0.02 0.03 0.02 0.02 0.03 0.03 0.02 0.02 0.02 0.02 0.02 0.02 0.03 0.09 0.13 0.07 0.04 0.04
0.03 0.05 0.05 0.04 0.03 0.02 0.02 0.03 0.03 0.04 0.04 0.03 0.03 0.02 0.02 0.01 0.01 0.02 0.03 0.03 0.04 0.04 0.03 0.03 0.02 0.01 0.02 0.03 0.02 0.01 0.01 0.01 0.01 0.01 0.01 0.01 0.01 0.02 0.06 0.09 0.07 0.06 0.06
0.03 0.03 0.03 0.02 0.02 0.01 0.01 0.01 0.02 0.03 0.03 0.02 0.02 0.01 0.01 0.01 0.01 0.01 0.02 0.02 0.02 0.03 0.02 0.01 0.01 0.01 0.02 0.03 0.02 0.02 0.01 0.01 0.01 0.00 0.00 0.01 0.01 0.01 0.02 0.04 0.03 0.05 0.07
0.02 0.02 0.02 0.01 0.01 0.01 0.01 0.03 0.03 0.02 0.02 0.01 0.01 0.01 0.02 0.02 0.01 0.01 0.02 0.01 0.02 0.03 0.02 0.02 0.02 0.03 0.05 0.04 0.03 0.02 0.01 0.01 0.01 0.00 0.00 0.01 0.02 0.02 0.02 0.02 0.02 0.03 0.04
0.01 0.01 0.02 0.02 0.01 0.01 0.02 0.02 0.02 0.01 0.01 0.01 0.01 0.01 0.02 0.02 0.02 0.02 0.03 0.03 0.02 0.01 0.02 0.02 0.02 0.04 0.06 0.03 0.01 0.01 0.01 0.01 0.01 0.00 0.01 0.01 0.01 0.02 0.02 0.01 0.01 0.02 0.03
0.01 0.01 0.02 0.02 0.02 0.02 0.02 0.01 0.01 0.02 0.02 0.01 0.02 0.02 0.02 0.02 0.02 0.03 0.03 0.03 0.02 0.02 0.03 0.03 0.03 0.02 0.02 0.01 0.01 0.02 0.01 0.01 0.01 0.01 0.01 0.01 0.01 0.01 0.01 0.01 0.02 0.02 0.02
0.01 0.01 0.02 0.03 0.02 0.02 0.03 0.02 0.02 0.02 0.03 0.02 0.02 0.02 0.02 0.02 0.02 0.03 0.04 0.03 0.03 0.03 0.03 0.03 0.04 0.03 0.02 0.01 0.02 0.02 0.02 0.01 0.00 0.01 0.01 0.01 0.01 0.01 0.01 0.01 0.02 0.02 0.02
0.01 0.02 0.03 0.04 0.03 0.02 0.02 0.02 0.02 0.02 0.02 0.02 0.02 0.02 0.02 0.02 0.02 0.02 0.04 0.04 0.02 0.03 0.03 0.03 0.03 0.02 0.02 0.02 0.04 0.04 0.03 0.02 0.01 0.01 0.01 0.01 0.01 0.01 0.01 0.01 0.02 0.02 0.03
0.01 0.01 0.02 0.04 0.04 0.03 0.03 0.03 0.02 0.02 0.03 0.03 0.02 0.02 0.02 0.01 0.01 0.02 0.03 0.04 0.03 0.03 0.04 0.03 0.02 0.02 0.03 0.02 0.03 0.04 0.04 0.03 0.02 0.02 0.01 0.01 0.01 0.01 0.01 0.01 0.01 0.01 0.02
0.01 0.01 0.02 0.03 0.04 0.04 0.05 0.06 0.05 0.03 0.03 0.03 0.03 0.02 0.01 0.01 0.01 0.02 0.01 0.01 0.02 0.02 0.02 0.02 0.01 0.02 0.03 0.04 0.03 0.02 0.02 0.02 0.03 0.02 0.01 0.00 0.00 0.01 0.01 0.01 0.01 0.01 0.02
0.01 0.00 0.01 0.01 0.03 0.05 0.06 0.06 0.07 0.04 0.03 0.03 0.03 0.04 0.02 0.01 0.01 0.02 0.01 0.01 0.01 0.01 0.01 0.01 0.01 0.01 0.01 0.03 0.04 0.02 0.01 0.02 0.03 0.04 0.03 0.01 0.01 0.01 0.01 0.01 0.01 0.02 0.01
0.01 0.01 0.01 0.01 0.02 0.03 0.05 0.05 0.05 0.04 0.04 0.04 0.05 0.05 0.04 0.03 0.02 0.02 0.01 0.01 0.01 0.02 0.02 0.02 0.02 0.02 0.01 0.02 0.03 0.02 0.03 0.03 0.03 0.03 0.03 0.02 0.01 0.02 0.01 0.01 0.01 0.02 0.02
MSLP
1010.67 1010.21 1009.91 1009.84 1010.00 1010.35 1010.78 1011.21 1011.55 1011.76 1011.84 1011.84 1011.82 1011.84 1011.93 1012.08 1012.27 1012.45 1012.57 1012.59 1012.52 1012.37 1012.20 1012.06 1011.98 1011.99 1012.08 1012.24 1012.43 1012.62 1012.79 1012.95 1013.11 1013.27 1013.46 1013.67 1013.89 1014.11 1014.30 1014.44 1014.52 1014.56 1014.57
1010.84 1010.40 1010.14 1010.13 1010.35 1010.73 1011.19 1011.62 1011.94 1012.12 1012.18 1012.16 1012.14 1012.17 1012.28 1012.46 1012.69 1012.89 1013.02 1013.04 1012.97 1012.83 1012.66 1012.52 1012.44 1012.45 1012.53 1012.66 1012.80 1012.94 1013.06 1013.17 1013.29 1013.44 1013.63 1013.86 1014.12 1014.37 1014.58 1014.74 1014.82 1014.85 1014.84
1010.99 1010.59 1010.38 1010.43 1010.71 1011.15 1011.64 1012.07 1012.38 1012.54 1012.57 1012.54 1012.51 1012.55 1012.67 1012.87 1013.10 1013.31 1013.44 1013.46 1013.39 1013.25 1013.09 1012.96 1012.89 1012.89 1012.95 1013.04 1013.13 1013.21 1013.28 1013.34 1013.43 1013.56 1013.76 1014.02 1014.31 1014.59 1014.83 1015.01 1015.10 1015.13 1015.12
1011.15 1010.80 1010.65 1010.77 1011.11 1011.59 1012.11 1012.55 1012.85 1012.99 1013.00 1012.95 1012.92 1012.95 1013.07 1013.27 1013.50 1013.71 1013.83 1013.86 1013.79 1013.65 1013.50 1013.38 1013.31 1013.30 1013.34 1013.39 1013.44 1013.46 1013.48 1013.50 1013.56 1013.69 1013.90 1014.17 1014.49 1014.80 1015.06 1015.25 1015.37 1015.41 1015.41
1011.36 1011.05 1010.97 1011.15 1011.54 1012.06 1012.59 1013.03 1013.32 1013.44 1013.43 1013.37 1013.32 1013.35 1013.47 1013.67 1013.89 1014.09 1014.21 1014.24 1014.17 1014.05 1013.91 1013.80 1013.73 1013.71 1013.72 1013.74 1013.74 1013.72 1013.69 1013.68 1013.73 1013.86 1014.07 1014.36 1014.68 1015.00 1015.28 1015.49 1015.61 1015.67 1015.69
1011.64 1011.38 1011.35 1011.58 1012.01 1012.55 1013.08 1013.51 1013.77 1013.87 1013.84 1013.76 1013.71 1013.73 1013.85 1014.04 1014.26 1014.46 1014.58 1014.61 1014.56 1014.45 1014.33 1014.22 1014.16 1014.12 1014.11 1014.09 1014.06 1014.00 1013.95 1013.92 1013.96 1014.08 1014.30 1014.59 1014.91 1015.23 1015.50 1015.71 1015.84 1015.92 1015.96
1012.02 1011.80 1011.81 1012.08 1012.53 1013.07 1013.58 1013.98 1014.21 1014.27 1014.22 1014.13 1014.06 1014.08 1014.20 1014.39 1014.60 1014.80 1014.92 1014.96 1014.93 1014.84 1014.73 1014.64 1014.57 1014.52 1014.49 1014.44 1014.38 1014.31 1014.24 1014.20 1014.24 1014.37 1014.59 1014.87 1015.19 1015.49 1015.74 1015.93 1016.05 1016.13 1016.19
1012.49 1012.30 1012.35 1012.64 1013.10 1013.62 1014.10 1014.45 1014.63 1014.66 1014.58 1014.47 1014.40 1014.41 1014.52 1014.70 1014.91 1015.10 1015.23 1015.28 1015.26 1015.19 1015.10 1015.01 1014.94 1014.89 1014.84 1014.77 1014.70 1014.61 1014.55 1014.53 1014.58 1014.72 1014.94 1015.21 1015.51 1015.78 1016.00 1016.16 1016.27 1016.34 1016.40
1013.04 1012.89 1012.97 1013.27 1013.71 1014.20 1014.63 1014.93 1015.07 1015.06 1014.95 1014.82 1014.74 1014.73 1014.82 1014.98 1015.17 1015.35 1015.47 1015.53 1015.52 1015.46 1015.39 1015.31 1015.25 1015.19 1015.12 1015.05 1014.97 1014.90 1014.85 1014.86 1014.93 1015.10 1015.33 1015.59 1015.87 1016.10 1016.29 1016.41 1016.49 1016.55 1016.62
1013.65 1013.54 1013.65 1013.95 1014.38 1014.82 1015.20 1015.44 1015.53 1015.48 1015.35 1015.19 1015.08 1015.05 1015.11 1015.23 1015.39 1015.53 1015.63 1015.68 1015.67 1015.63 1015.57 1015.51 1015.45 1015.39 1015.33 1015.26 1015.20 1015.14 1015.12 1015.17 1015.28 1015.47 1015.72 1015.99 1016.25 1016.46 1016.61 1016.71 1016.76 1016.80 1016.85
1014.29 1014.23 1014.37 1014.68 1015.08 1015.48 1015.80 1015.99 1016.02 1015.94 1015.77 1015.59 1015.45 1015.38 1015.38 1015.45 1015.54 1015.64 1015.70 1015.73 1015.72 1015.69 1015.64 1015.60 1015.56 1015.51 1015.46 1015.41 1015.36 1015.33 1015.36 1015.44 1015.60 1015.83 1016.10 1016.38 1016.64 1016.84 1016.97 1017.04 1017.07 1017.09 1017.14
1014.96 1014.96 1015.12 1015.43 1015.80 1016.15 1016.41 1016.55 1016.54 1016.41 1016.22 1016.00 1015.82 1015.69 1015.63 1015.63 1015.65 1015.68 1015.69 1015.69 1015.68 1015.65 1015.63 1015.61 1015.59 1015.57 1015.54 1015.51 1015.48 1015.49 1015.55 1015.68 1015.88 1016.15 1016.45 1016.74 1017.00 1017.20 1017.33 1017.39 1017.41 1017.43 1017.47
1015.65 1015.70 1015.90 1016.20 1016.53 1016.82 1017.03 1017.10 1017.05 1016.89 1016.66 1016.41 1016.18 1016.00 1015.86 1015.77 1015.71 1015.66 1015.63 1015.60 1015.58 1015.57 1015.57 1015.59 1015.60 1015.61 1015.61 1015.60 1015.61 1015.65 1015.74 1015.90 1016.14 1016.43 1016.75 1017.06 1017.33 1017.54 1017.67 1017.74 1017.77 1017.79 1017.82
1016.35 1016.46 1016.67 1016.95 1017.23 1017.46 1017.60 1017.62 1017.52 1017.32 1017.06 1016.78 1016.50 1016.25 1016.04 1015.87 1015.73 1015.62 1015.54 1015.50 1015.48 1015.50 1015.54 1015.60 1015.65 1015.70 1015.73 1015.75 1015.78 1015.84 1015.95 1016.13 1016.37 1016.68 1017.01 1017.33 1017.61 1017.82 1017.97 1018.06 1018.10 1018.13 1018.18
1017.06 1017.21 1017.42 1017.66 1017.88 1018.04 1018.10 1018.05 1017.90 1017.67 1017.39 1017.07 1016.76 1016.45 1016.18 1015.94 1015.74 1015.58 1015.48 1015.43 1015.43 1015.49 1015.58 1015.69 1015.79 1015.88 1015.94 1015.98 1016.02 1016.09 1016.20 1016.38 1016.62 1016.92 1017.24 1017.55 1017.82 1018.05 1018.21 1018.31 1018.38 1018.43 1018.49
1017.77 1017.93 1018.12 1018.30 1018.43 1018.50 1018.48 1018.37 1018.18 1017.91 1017.60 1017.27 1016.92 1016.58 1016.27 1015.98 1015.75 1015.57 1015.46 1015.43 1015.48 1015.58 1015.73 1015.89 1016.04 1016.17 1016.26 1016.32 1016.37 1016.43 1016.53 1016.69 1016.91 1017.17 1017.46 1017.75 1018.01 1018.23 1018.39 1018.51 1018.60 1018.67 1018.75
1018.42 1018.57 1018.71 1018.81 1018.86 1018.84 1018.73 1018.56 1018.32 1018.04 1017.72 1017.37 1017.01 1016.66 1016.32 1016.03 1015.78 1015.61 1015.52 1015.53 1015.62 1015.78 1015.99 1016.20 1016.40 1016.56 1016.67 1016.74 1016.79 1016.84 1016.93 1017.06 1017.25 1017.48 1017.73 1017.98 1018.21 1018.41 1018.57 1018.69 1018.79 1018.88 1018.96
1018.98 1019.09 1019.17 1019.19 1019.14 1019.03 1018.86 1018.63 1018.37 1018.07 1017.75 1017.41 1017.06 1016.71 1016.38 1016.09 1015.86 1015.72 1015.67 1015.72 1015.87 1016.08 1016.33 1016.59 1016.82 1017.00 1017.13 1017.21 1017.26 1017.32 1017.39 1017.50 1017.66 1017.86 1018.07 1018.29 1018.49 1018.66 1018.80 1018.92 1019.01 1019.11 1019.19
1019.40 1019.45 1019.46 1019.39 1019.26 1019.08 1018.86 1018.61 1018.34 1018.05 1017.75 1017.44 1017.11 1016.79 1016.49 1016.22 1016.02 1015.91 1015.91 1016.01 1016.20 1016.45 1016.74 1017.02 1017.27 1017.47 1017.60 1017.69 1017.76 1017.81 1017.89 1018.00 1018.16 1018.34 1018.53 1018.72 1018.90 1019.04 1019.16 1019.26 1019.35 1019.43 1019.51
1019.65 1019.64 1019.57 1019.44 1019.25 1019.03 1018.79 1018.54 1018.29 1018.04 1017.78 1017.51 1017.23 1016.95 1016.68 1016.45 1016.29 1016.22 1016.25 1016.39 1016.60 1016.88 1017.18 1017.47 1017.71 1017.91 1018.05 1018.15 1018.23 1018.31 1018.42 1018.56 1018.72 1018.92 1019.12 1019.31 1019.48 1019.61 1019.71 1019.79 1019.86 1019.92 1019.98
1019.73 1019.66 1019.53 1019.34 1019.12 1018.89 1018.67 1018.46 1018.27 1018.09 1017.89 1017.69 1017.46 1017.23 1017.00 1016.82 1016.69 1016.65 1016.71 1016.85 1017.08 1017.35 1017.63 1017.90 1018.13 1018.32 1018.45 1018.56 1018.67 1018.79 1018.94 1019.13 1019.35 1019.59 1019.83 1020.04 1020.22 1020.36 1020.46 1020.53 1020.58 1020.61 1020.63
1019.69 1019.55 1019.37 1019.15 1018.93 1018.73 1018.56 1018.43 1018.32 1018.22 1018.12 1017.99 1017.83 1017.65 1017.48 1017.32 1017.23 1017.20 1017.27 1017.41 1017.62 1017.86 1018.12 1018.35 1018.54 1018.70 1018.83 1018.95 1019.08 1019.24 1019.45 1019.71 1020.00 1020.30 1020.60 1020.87 1021.09 1021.25 1021.36 1021.43 1021.46 1021.47 1021.46
1019.57 1019.38 1019.16 1018.93 1018.74 1018.59 1018.50 1018.46 1018.46 1018.47 1018.46 1018.42 1018.34 1018.22 1018.08 1017.96 1017.88 1017.87 1017.93 1018.06 1018.24 1018.44 1018.64 1018.83 1018.98 1019.10 1019.21 1019.33 1019.48 1019.68 1019.94 1020.26 1020.62 1021.00 1021.37 1021.70 1021.98 1022.19 1022.33 1022.41 1022.45 1022.44 1022.40
1019.46 1019.23 1018.98 1018.76 1018.59 1018.51 1018.51 1018.58 1018.69 1018.81 1018.91 1018.95 1018.94 1018.88 1018.79 1018.69 1018.63 1018.62 1018.67 1018.78 1018.92 1019.08 1019.24 1019.38 1019.48 1019.57 1019.65 1019.76 1019.91 1020.13 1020.42 1020.78 1021.20 1021.63 1022.06 1022.46 1022.79 1023.06 1023.24 1023.36 1023.40 1023.39 1023.33
1019.43 1019.16 1018.89 1018.68 1018.55 1018.53 1018.62 1018.78 1019.00 1019.22 1019.40 1019.53 1019.58 1019.57 1019.52 1019.45 1019.41 1019.40 1019.45 1019.54 1019.66 1019.80 1019.92 1020.01 1020.08 1020.13 1020.18 1020.26 1020.40 1020.60 1020.89 1021.26 1021.69 1022.15 1022.62 1023.06 1023.44 1023.76 1023.99 1024.15 1024.22 1024.23 1024.17
1019.53 1019.23 1018.94 1018.74 1018.64 1018.67 1018.82 1019.06 1019.35 1019.65 1019.90 1020.08 1020.19 1020.22 1020.21 1020.17 1020.15 1020.16 1020.22 1020.31 1020.44 1020.56 1020.67 1020.75 1020.79 1020.81 1020.83 1020.88 1020.97 1021.14 1021.39 1021.72 1022.12 1022.56 1023.02 1023.47 1023.89 1024.24 1024.52 1024.72 1024.84 1024.88 1024.84
Thickness
5783 5783 5782 5781 5780 5780 5779 5779 5778 5777 5776 5775 5774 5773 5773 5772 5772 5772 5771 5771 5770 5770 5770 5769 5769 5768 5768 5768 5767 5767 5766 5766 5766 5765 5765 5765 5764 5763 5763 5763 5763 5763 5763
5785 5783 5781 5780 5780 5779 5778 5777 5777 5776 5775 5774 5773 5772 5771 5771 5770 5770 5770 5769 5769 5768 5768 5768 5767 5767 5766 5766 5765 5765 5764 5764 5764 5764 5763 5762 5762 5761 5761 5761 5761 5760 5760
5786 5783 5781 5780 5779 5778 5777 5776 5775 5774 5773 5772 5771 5770 5770 5769 5768 5768 5768 5767 5767 5767 5766 5766 5765 5765 5764 5764 5763 5763 5762 5763 5763 5762 5762 5761 5760 5759 5758 5758 5758 5758 5758
5786 5783 5780 5778 5777 5776 5775 5774 5774 5773 5772 5771 5769 5768 5768 5767 5767 5766 5766 5765 5765 5764 5764 5764 5764 5763 5762 5762 5761 5761 5761 5761 5761 5761 5760 5759 5757 5756 5756 5755 5755 5755 5755
5784 5781 5778 5776 5775 5774 5773 5773 5772 5771 5770 5769 5768 5767 5766 5765 5765 5764 5764 5763 5763 5762 5762 5761 5761 5761 5760 5760 5759 5759 5759 5759 5759 5758 5757 5756 5754 5753 5753 5752 5752 5752 5752
5782 5779 5775 5774 5773 5772 5771 5771 5770 5769 5768 5767 5766 5765 5764 5763 5763 5762 5761 5761 5761 5760 5760 5759 5759 5758 5758 5757 5757 5757 5757 5757 5756 5755 5754 5753 5751 5751 5750 5749 5749 5749 5749
5780 5777 5774 5772 5771 5770 5769 5768 5767 5766 5766 5765 5764 5763 5762 5761 5760 5760 5759 5758 5758 5758 5757 5756 5756 5756 5755 5755 5755 5755 5755 5755 5754 5753 5751 5750 5748 5748 5747 5747 5746 5746 5746
5780 5776 5772 5770 5769 5768 5767 5766 5765 5764 5763 5762 5761 5761 5760 5760 5759 5758 5757 5756 5755 5755 5755 5754 5753 5753 5753 5753 5753 5753 5753 5753 5752 5750 5748 5746 5745 5745 5744 5744 5743 5743 5743
5779 5775 5772 5769 5767 5765 5764 5763 5762 5762 5761 5760 5759 5759 5758 5758 5757 5755 5754 5753 5753 5752 5752 5751 5751 5751 5750 5750 5750 5750 5750 5750 5748 5747 5745 5743 5742 5742 5741 5741 5740 5740 5740
5777 5775 5772 5769 5767 5764 5762 5761 5760 5759 5759 5758 5758 5757 5757 5756 5755 5754 5752 5751 5751 5750 5749 5749 5748 5748 5748 5748 5748 5747 5747 5746 5744 5742 5740 5739 5739 5739 5738 5738 5737 5737 5736
5773 5772 5772 5770 5767 5764 5761 5760 5758 5757 5757 5757 5756 5756 5755 5755 5753 5752 5750 5749 5748 5748 5747 5747 5746 5746 5746 5746 5745 5745 5744 5742 5740 5738 5736 5736 5736 5736 5735 5735 5734 5733 5733
5767 5769 5770 5769 5766 5764 5762 5759 5757 5757 5755 5755 5756 5755 5754 5754 5752 5750 5748 5747 5746 5746 5746 5745 5745 5744 5743 5743 5743 5742 5741 5739 5737 5735 5733 5733 5733 5732 5732 5731 5730 5730 5729
5766 5767 5768 5767 5766 5763 5761 5759 5757 5756 5755 5755 5754 5754 5753 5752 5750 5749 5746 5745 5744 5744 5744 5744 5743 5742 5742 5742 5741 5740 5738 5736 5733 5731 5729 5729 5729 5729 5728 5727 5727 5726 5726
5764 5764 5765 5766 5764 5762 5760 5757 5756 5755 5754 5753 5753 5752 5751 5750 5749 5748 5747 5745 5744 5743 5743 5743 5742 5741 5741 5740 5738 5736 5735 5732 5730 5727 5726 5725 5726 5725 5725 5724 5723 5722 5722
5761 5762 5763 5763 5762 5760 5758 5756 5755 5753 5752 5752 5751 5750 5749 5748 5747 5746 5744 5744 5743 5742 5741 5740 5739 5738 5737 5736 5734 5732 5731 5729 5726 5723 5721 5721 5721 5721 5721 5720 5719 5718 5718
5759 5759 5760 5760 5759 5757 5755 5754 5753 5751 5750 5749 5748 5748 5747 5746 5745 5743 5742 5741 5741 5740 5738 5737 5735 5734 5732 5731 5729 5728 5727 5725 5723 5720 5718 5717 5716 5716 5716 5715 5715 5714 5714
5758 5759 5759 5758 5757 5755 5753 5751 5750 5749 5747 5746 5745 5745 5745 5743 5742 5741 5740 5738 5738 5737 5735 5734 5732 5730 5728 5726 5724 5723 5722 5721 5720 5718 5716 5714 5712 5712 5711 5711 5710 5710 5710
5758 5757 5757 5757 5755 5752 5750 5748 5747 5746 5745 5743 5742 5742 5741 5740 5739 5738 5736 5735 5734 5733 5731 5729 5727 5724 5722 5720 5719 5719 5718 5717 5716 5715 5714 5712 5710 5709 5707 5706 5705 5705 5705
5757 5755 5754 5753 5751 5749 5747 5745 5744 5743 5741 5740 5739 5738 5738 5737 5736 5734 5732 5731 5730 5729 5728 5726 5722 5720 5717 5715 5714 5714 5713 5713 5712 5712 5711 5709 5708 5706 5704 5702 5701 5700 5700
5755 5754 5751 5750 5748 5746 5743 5742 5740 5738 5737 5737 5736 5735 5734 5733 5733 5731 5729 5727 5726 5725 5722 5720 5718 5716 5714 5712 5711 5709 5709 5709 5708 5707 5707 5706 5704 5703 5701 5699 5698 5696 5695
5750 5749 5748 5745 5743 5741 5738 5735 5732 5731 5731 5732 5732 5731 5730 5730 5729 5728 5725 5723 5722 5720 5718 5717 5714 5711 5709 5709 5704 5701 5703 5704 5703 5702 5702 5701 5701 5700 5698 5696 5694 5693 5691
5744 5744 5744 5742 5740 5738 5735 5733 5731 5729 5728 5728 5728 5727 5727 5726 5726 5724 5722 5719 5718 5716 5714 5712 5710 5706 5705 5705 5700 5694 5690 5691 5695 5698 5697 5696 5696 5696 5694 5693 5691 5689 5687
5741 5740 5740 5739 5738 5736 5733 5730 5728 5726 5725 5723 5722 5722 5723 5723 5722 5721 5719 5717 5715 5713 5709 5708 5707 5704 5700 5701 5701 5694 5686 5681 5684 5688 5690 5690 5690 5689 5689 5688 5687 5685 5683
5739 5740 5739 5737 5735 5734 5731 5727 5723 5719 5717 5718 5719 5719 5719 5719 5718 5717 5716 5714 5712 5710 5707 5706 5705 5703 5700 5696 5697 5697 5695 5690 5682 5677 5681 5684 5685 5684 5683 5683 5681 5680 5679
5739 5737 5737 5735 5732 5731 5729 5726 5722 5719 5717 5717 5717 5716 5716 5715 5715 5714 5713 5712 5710 5707 5705 5703 5702 5700 5698 5695 5693 5693 5691 5690 5688 5679 5672 5675 5677 5678 5678 5677 5676 5675 5674
5736 5734 5733 5730 5729 5728 5727 5724 5720 5717 5715 5714 5713 5712 5711 5711 5711 5711 5710 5708 5707 5705 5703 5701 5699 5697 5696 5694 5692 5691 5688 5685 5682 5679 5673 5671 5670 5671 5673 5673 5671 5670 5669